Regional Weather Roundup
Issued by NWS Nashville, TN

Home | Current Version | Previous Version | Text Only | Print | Product List | Glossary On
Versions: 1 2 3 4 5 6 7 8 9 10 11 12 13 14 15 16 17 18 19 20 21 22 23 24 25 26 27 28 29 30 31 32 33 34 35 36 37 38 39 40 41 42 43 44 45 46 47 48 49 50
000
ASUS44 KOHX 020815
RWROHX
MIDDLE TENNESSEE HOURLY WEATHER ROUNDUP
NATIONAL WEATHER SERVICE NASHVILLE TN
300 AM CDT THU APR 02 2015

NOTE: "FAIR" INDICATES FEW OR NO CLOUDS BELOW 12,000 FEET WITH
NO SIGNIFICANT WEATHER AND/OR OBSTRUCTIONS TO VISIBILITY.

* THESE REPORTS ARE NOT UNDER NWS QUALITY CONTROL AND MAY NOT
  REPORT WEATHER SUCH AS PRECIPITATION AND FOG.


TNZ005>011-023>034-057-059-062>066-078-080-020900
...NORTHERN MIDDLE TENNESSEE...

CITY           SKY/WX    TMP DP  RH WIND       PRES   REMARKS
CLARKSVILLE    CLOUDY    63  40  42 S6        29.93F
CROSSVILLE     PTCLDY    58  27  30 S5        30.07S
GALLATIN       MOCLDY    57  44  62 CALM      29.99F
LIVINGSTON     PTCLDY    65  33  30 SW8       30.01F
NASHVILLE      PTCLDY    63  41  44 S5        29.98S
PORTLAND       PTCLDY    59  32  36 S8        29.97S
SMYRNA         PTCLDY    55  43  64 CALM      30.00S
SPARTA         PTCLDY    63  34  34 S9          N/A
$$
TNZ056-058-060-061-075>077-079-093>097-020900
...SOUTHERN MIDDLE TENNESSEE...

CITY           SKY/WX    TMP DP  RH WIND       PRES   REMARKS
COLUMBIA       CLEAR     66  61  82 S8        29.98S
LEWISBURG      PTCLDY    64  50  60 S6        29.99F
MCMINNVILLE    PTCLDY    64  48  55 S3        30.01F
MURFREESBORO   PTCLDY    64  44  48 S6        29.99S
SHELBYVILLE    PTCLDY    63  50  63 S6        30.02R
TULLAHOMA      PTCLDY    61  46  59 S3        30.03S
WINCHESTER     CLEAR     63  50  63 S8        30.04S
$$


...KEY TO REMARKS...
VSB - VISIBILITY IN MILES
WCI - WIND CHILL INDEX
HX  - HEAT INDEX




USA.gov is the U.S. government's official web portal to all federal, state and local government web resources and services.